Nottingham - eastern half: Past 24 Hour Conditions

 

Pond Inlet Airport

02:00 AM EDT 01 October 2014
This table is a summary of hourly weather conditions for the past 24 hours.
Date / Time
(EDT)
Wind(knots) Conditions Visibility(km) Pressure(kPa) Air tempC) Relative humidity(%) Dew pointC) Wind Chill
01 October 2014
2:00 SSE 11 Partly Cloudy 16 100.7 -9 83 -11 -17
1:00 SSW 11 Clear 16 100.7 -9 81 -11 -16
0:00 SSE 15 Cloudy 16 100.6 -10 82 -12 -19
30 September 2014
23:00 SE 15 Mostly Cloudy 16 100.6 -10 80 -13 -19
22:00 SSE 16 Clear 16 100.6 -10 79 -13 -20
21:00 SE 15 Clear 16 100.5 -10 82 -12 -19
20:00 SE 16 Clear 16 100.5 -11 81 -14 -21
19:00 SSE 14 Partly Cloudy 40 100.5 -11 81 -14 -21
18:00 SSE 13 Mainly Sunny 40 100.5 -12 80 -15 -21
17:00 SSE 15 Mainly Sunny 40 100.4 -9 76 -13 -18
16:00 SSE 13 Mainly Sunny 40 100.4 -8 72 -12 -16
15:00 SE 13 Mainly Sunny 40 100.4 -8 76 -12 -16
14:00 SE 14 Mainly Sunny 40 100.3 -8 75 -12 -17
13:00 SE 13 Partly Cloudy 40 100.3 -8 76 -12 -17
12:00 SE 15 Mainly Sunny 40 100.3 -9 76 -13 -18
11:00 SE 12 Mainly Sunny 40 100.3 -9 77 -12 -17
10:00 SE 14 Sunny 16 100.4 -10 78 -13 -19
9:00 SE 15 Sunny 16 100.4 -11 82 -13 -20
8:00 SE 13 Sunny 16 100.4 -10 77 -13 -19
7:00 NW 12 gust 17 Clear 16 100.4 -6 68 -11 -13
6:00 SSE 12 Cloudy 16 100.5 -10 77 -13 -18
5:00 SE 13 Mostly Cloudy 16 100.5 -9 77 -13 -18
4:00 SE 13 Cloudy 16 100.5 -8 75 -12 -17
3:00 SE 13 Mostly Cloudy 16 100.5 -10 77 -13 -18
2:00 SE 13 Cloudy 16 100.5 -9 74 -13 -17
 
Map of Arctic - Eastern Arctic marine weather areas Baker Lake Airport Chesterfield Inlet Airport Coral Harbour Airport Gjoa Haven Airport Kugaaruk Airport Rankin Inlet Airport Shepherd Bay Airport Whale Cove Airport Arctic Bay Brevoort Island Qikiqtarjuaq Airport Cape Dorset Airport Cape Dyer Cape Hooper Clyde Airport Grise Fiord Airport Hall Beach Airport Igloolik Airport Iqaluit Airport Longstaff Bluff Pangnirtung Airport Pond Inlet Airport Repulse Bay Airport Resolute Airport Resolution Island Rowley Island Airport Taloyoak Airport Wager Bay Akulivik Airport Ivujivik Airport Puvirnituq Airport Kangiqsujuaq Airport Kangirsuk Airport Quaqtaq Airport Tasiujaq Airport Cape Kakkiviak Cape Kiglapait Nain Airport Saglek Cape Mercy Kimmirut Airport Aupaluk Airport Salluit Airport Kangiqsualujjuaq Airport Fort Ross
Legend: buoyBuoy land stationLand Station